RCH606 EHEH-TNCC

Flight info

Callsign RCH606
Flight time N/A
Altitude 32000
Route ABNED L980 LOGAN DCT SAM N19 ADKIK DCT JOZMA DCT ARKIL/M074F320 DCT DINIM DCT 50N020W 47N030W 43N040W/M074F340 37N050W/M074F360 2508N05954W/M074F380 DCT OPAUL/N0428F380 L327 SCAPA SCAPA1B
Aircraft C17/H-SDE1E2FGHIJ5RTUWXY/LB1D1

Departure

Time 2026-05-06 06:33
Airport Eindhoven Airport (EHEH)

Arrival

Time N/A
Airport Hato International Airport (TNCC)
Time Latitude Longitude Altitude Speed Heading
2026-05-06 04:27 51.45280 5.38409 64 ft 0 kts 123°
2026-05-06 05:28 51.45292 5.38458 72 ft 13 kts 27°
2026-05-06 05:29 51.45384 5.38425 63 ft 15 kts 330°
2026-05-06 05:29 51.45451 5.38304 65 ft 11 kts 307°
2026-05-06 05:29 51.45488 5.38221 61 ft 7 kts 303°
2026-05-06 05:29 51.45517 5.38149 62 ft 10 kts 303°
2026-05-06 05:30 51.45560 5.38047 65 ft 12 kts 304°
2026-05-06 05:30 51.45612 5.37925 69 ft 13 kts 307°
2026-05-06 05:30 51.45694 5.37933 64 ft 15 kts 34°
2026-05-06 05:30 51.45787 5.38035 65 ft 18 kts 34°
2026-05-06 05:31 51.45904 5.38163 66 ft 22 kts 34°
2026-05-06 05:31 51.46029 5.38305 65 ft 23 kts 35°
2026-05-06 05:31 51.46133 5.38426 67 ft 13 kts 36°
2026-05-06 05:31 51.46169 5.38481 68 ft 2 kts 72°
2026-05-06 05:32 51.46169 5.38483 68 ft 0 kts 75°
2026-05-06 05:47 51.46170 5.38488 76 ft 4 kts 75°
2026-05-06 05:47 51.46144 5.38587 66 ft 0 kts 126°
2026-05-06 05:56 51.46130 5.38619 63 ft 4 kts 126°
2026-05-06 05:56 51.46129 5.38621 64 ft 0 kts 126°
2026-05-06 06:31 51.46126 5.38628 65 ft 5 kts 126°
2026-05-06 06:31 51.46087 5.38643 67 ft 9 kts 200°
2026-05-06 06:32 51.46048 5.38609 68 ft 0 kts 214°
2026-05-06 06:32 51.46035 5.38594 65 ft 21 kts 214°
2026-05-06 06:32 51.45621 5.38124 64 ft 121 kts 216°
2026-05-06 06:33 51.44728 5.37161 328 ft 174 kts 212°
2026-05-06 06:33 51.43648 5.36284 945 ft 175 kts 206°
2026-05-06 06:33 51.42522 5.35416 1524 ft 183 kts 208°
2026-05-06 06:33 51.41531 5.34097 2030 ft 200 kts 237°
2026-05-06 06:34 51.41032 5.31902 2333 ft 222 kts 271°
2026-05-06 06:34 51.41197 5.29387 2980 ft 234 kts 284°
2026-05-06 06:34 51.41535 5.26767 3652 ft 250 kts 286°
2026-05-06 06:34 51.42292 5.24352 4608 ft 235 kts 323°
2026-05-06 06:35 51.43580 5.23423 6340 ft 170 kts 350°
2026-05-06 06:35 51.44714 5.22984 6995 ft 189 kts 348°
2026-05-06 06:35 51.46152 5.22421 6893 ft 234 kts 348°
2026-05-06 06:35 51.47832 5.21769 7188 ft 262 kts 347°
2026-05-06 06:36 51.49663 5.20939 7595 ft 285 kts 343°
2026-05-06 06:36 51.51411 5.19218 7967 ft 311 kts 314°
2026-05-06 06:36 51.52458 5.16086 8451 ft 332 kts 284°
2026-05-06 06:36 51.52676 5.12328 9039 ft 342 kts 272°
2026-05-06 06:37 51.52686 5.08493 9657 ft 345 kts 272°
2026-05-06 06:37 51.52809 5.04639 10175 ft 347 kts 277°
2026-05-06 06:37 51.53235 5.00825 10701 ft 347 kts 286°
2026-05-06 06:37 51.53953 4.97119 11228 ft 348 kts 290°
2026-05-06 06:38 51.54722 4.93425 11776 ft 350 kts 288°
2026-05-06 06:38 51.55354 4.89681 12328 ft 355 kts 285°
2026-05-06 06:38 51.55945 4.85777 12901 ft 364 kts 286°
2026-05-06 06:38 51.56605 4.81806 13486 ft 372 kts 288°
2026-05-06 06:39 51.57305 4.77805 14020 ft 370 kts 288°
2026-05-06 06:39 51.57975 4.73836 14534 ft 366 kts 287°
2026-05-06 06:39 51.58618 4.69903 15052 ft 361 kts 287°
2026-05-06 06:39 51.59258 4.66032 15574 ft 352 kts 286°
2026-05-06 06:40 51.59850 4.62448 16061 ft 311 kts 286°
2026-05-06 06:40 51.60372 4.59285 16504 ft 278 kts 285°
2026-05-06 06:40 51.60870 4.56290 17031 ft 285 kts 285°
2026-05-06 06:40 51.61405 4.53058 17647 ft 314 kts 284°
2026-05-06 06:41 51.61989 4.49501 18293 ft 344 kts 284°
2026-05-06 06:41 51.62625 4.45624 18883 ft 374 kts 284°
2026-05-06 06:41 51.63315 4.41419 19439 ft 403 kts 284°
2026-05-06 06:41 51.64053 4.36961 20018 ft 420 kts 284°
2026-05-06 06:42 51.64803 4.32419 20575 ft 428 kts 283°
2026-05-06 06:42 51.65558 4.27750 21133 ft 433 kts 284°
2026-05-06 06:42 51.66316 4.23037 21706 ft 436 kts 283°
2026-05-06 06:42 51.67084 4.18288 22258 ft 440 kts 284°
2026-05-06 06:43 51.67862 4.13490 22691 ft 446 kts 284°
2026-05-06 06:43 51.68645 4.08629 23164 ft 451 kts 284°
2026-05-06 06:43 51.69434 4.03697 23596 ft 456 kts 283°
2026-05-06 06:43 51.70224 3.98748 23989 ft 460 kts 283°
2026-05-06 06:44 51.71029 3.93703 24380 ft 464 kts 284°
2026-05-06 06:44 51.71831 3.88656 24775 ft 466 kts 283°
2026-05-06 06:44 51.72710 3.83627 25195 ft 466 kts 287°
2026-05-06 06:44 51.73668 3.78616 25608 ft 467 kts 286°
2026-05-06 06:45 51.74568 3.73573 26018 ft 468 kts 285°
2026-05-06 06:45 51.75486 3.68523 26440 ft 470 kts 286°
2026-05-06 06:45 51.76445 3.63478 26867 ft 471 kts 287°
2026-05-06 06:45 51.77399 3.58416 27300 ft 472 kts 286°
2026-05-06 06:46 51.78327 3.53330 27739 ft 473 kts 286°
2026-05-06 06:46 51.79254 3.48232 28200 ft 474 kts 286°
2026-05-06 06:46 51.80197 3.43130 28637 ft 474 kts 286°
2026-05-06 06:46 51.81141 3.38019 29104 ft 475 kts 284°
2026-05-06 06:47 51.82076 3.32886 29575 ft 476 kts 284°
2026-05-06 06:47 51.83005 3.27748 30049 ft 476 kts 285°
2026-05-06 06:47 51.83939 3.22608 30460 ft 477 kts 284°
2026-05-06 06:47 51.84687 3.17408 30865 ft 475 kts 274°
2026-05-06 06:48 51.84633 3.12081 31041 ft 473 kts 263°
2026-05-06 06:48 51.83916 3.01794 31059 ft 455 kts 261°
2026-05-06 06:49 51.83268 2.91693 31064 ft 460 kts 263°
2026-05-06 06:49 51.82574 2.81285 31081 ft 468 kts 262°
2026-05-06 06:50 51.81867 2.70826 31093 ft 468 kts 263°
2026-05-06 06:50 51.81157 2.60411 31078 ft 462 kts 262°
2026-05-06 06:51 51.80443 2.50183 31077 ft 454 kts 262°
2026-05-06 06:51 51.79738 2.40140 31079 ft 446 kts 263°
2026-05-06 06:52 51.79036 2.30279 31080 ft 439 kts 262°
2026-05-06 06:52 51.78387 2.20549 31070 ft 433 kts 265°
2026-05-06 06:53 51.77796 2.10935 31063 ft 428 kts 262°
2026-05-06 06:53 51.77236 2.01515 31084 ft 421 kts 264°
2026-05-06 06:54 51.76680 1.92135 31100 ft 419 kts 263°
2026-05-06 06:54 51.76097 1.82709 31105 ft 426 kts 264°
2026-05-06 06:55 51.75511 1.73090 31115 ft 435 kts 263°
2026-05-06 06:55 51.74884 1.63309 31117 ft 442 kts 262°
2026-05-06 06:55 51.74107 1.58511 31119 ft 444 kts 248°
2026-05-06 06:56 51.72944 1.53877 31117 ft 447 kts 247°
2026-05-06 06:56 51.70554 1.44518 31121 ft 455 kts 248°
2026-05-06 06:57 51.68166 1.35030 31123 ft 457 kts 248°
2026-05-06 06:57 51.65746 1.25564 31032 ft 457 kts 248°
2026-05-06 06:58 51.63332 1.16090 30957 ft 456 kts 247°
2026-05-06 06:58 51.60916 1.06683 30953 ft 454 kts 247°
2026-05-06 06:59 51.58525 0.97398 30956 ft 451 kts 247°
2026-05-06 06:59 51.56117 0.88091 30962 ft 450 kts 247°
2026-05-06 06:59 51.54908 0.83437 30824 ft 452 kts 247°
2026-05-06 07:00 51.53694 0.78765 30700 ft 454 kts 247°
2026-05-06 07:00 51.52474 0.74080 30582 ft 456 kts 247°
2026-05-06 07:00 51.51247 0.69385 30450 ft 457 kts 247°
2026-05-06 07:00 51.50014 0.64670 30341 ft 458 kts 247°
2026-05-06 07:01 51.48777 0.59951 30221 ft 459 kts 247°
2026-05-06 07:01 51.47536 0.55229 30097 ft 460 kts 247°
2026-05-06 07:01 51.46289 0.50495 29983 ft 461 kts 247°
2026-05-06 07:01 51.45039 0.45757 29849 ft 462 kts 246°
2026-05-06 07:02 51.44208 0.42610 29753 ft 463 kts 246°
2026-05-06 07:02 51.42966 0.37919 30210 ft 450 kts 246°
2026-05-06 07:02 51.41759 0.33372 30701 ft 438 kts 247°
2026-05-06 07:02 51.40577 0.28923 30942 ft 433 kts 247°
2026-05-06 07:03 51.39396 0.24490 30978 ft 433 kts 247°
2026-05-06 07:03 51.37023 0.15606 30987 ft 434 kts 246°
2026-05-06 07:04 51.34641 0.06718 31004 ft 435 kts 246°
2026-05-06 07:04 51.32243 -0.02188 30980 ft 436 kts 247°
2026-05-06 07:05 51.29839 -0.11085 31150 ft 432 kts 247°
2026-05-06 07:05 51.28651 -0.15470 31354 ft 428 kts 247°
2026-05-06 07:05 51.27472 -0.19811 31532 ft 425 kts 247°
2026-05-06 07:05 51.26299 -0.24123 31755 ft 421 kts 247°
2026-05-06 07:06 51.25138 -0.28385 31945 ft 417 kts 247°
2026-05-06 07:06 51.23985 -0.32608 32141 ft 414 kts 247°
2026-05-06 07:06 51.22837 -0.36804 32340 ft 410 kts 247°
2026-05-06 07:06 51.21700 -0.40955 32539 ft 407 kts 247°
2026-05-06 07:07 51.20571 -0.45067 32747 ft 403 kts 247°
2026-05-06 07:07 51.19464 -0.49093 32936 ft 400 kts 247°
2026-05-06 07:07 51.18353 -0.53129 33185 ft 396 kts 247°
2026-05-06 07:07 51.17247 -0.57133 33379 ft 393 kts 248°
2026-05-06 07:08 51.16149 -0.61106 33592 ft 389 kts 248°
2026-05-06 07:08 51.15063 -0.65033 33785 ft 385 kts 248°
2026-05-06 07:08 51.13984 -0.68923 33994 ft 382 kts 248°
2026-05-06 07:08 51.12915 -0.72768 34160 ft 378 kts 248°
2026-05-06 07:09 51.11855 -0.76582 34274 ft 376 kts 247°
2026-05-06 07:09 51.10799 -0.80371 34386 ft 374 kts 247°
2026-05-06 07:09 51.09745 -0.84140 34485 ft 371 kts 248°
2026-05-06 07:09 51.08698 -0.87888 34598 ft 369 kts 248°
2026-05-06 07:10 51.07657 -0.91612 34708 ft 370 kts 247°
2026-05-06 07:10 51.06604 -0.95362 34825 ft 371 kts 248°
2026-05-06 07:10 51.05548 -0.99119 34940 ft 374 kts 247°
2026-05-06 07:11 51.03466 -1.06507 34921 ft 352 kts 247°
2026-05-06 07:11 51.01461 -1.13612 34952 ft 359 kts 248°
2026-05-06 07:12 50.99390 -1.20927 35008 ft 365 kts 247°
2026-05-06 07:12 50.97309 -1.28237 34998 ft 361 kts 247°
2026-05-06 07:13 50.95375 -1.35570 34981 ft 360 kts 259°
2026-05-06 07:13 50.94409 -1.43367 35002 ft 360 kts 260°
2026-05-06 07:14 50.93412 -1.51107 34999 ft 359 kts 259°
2026-05-06 07:14 50.92421 -1.58861 35003 ft 359 kts 260°
2026-05-06 07:15 50.91429 -1.66540 34999 ft 358 kts 260°
2026-05-06 07:15 50.90426 -1.74288 35006 ft 359 kts 260°
2026-05-06 07:16 50.89435 -1.82024 35003 ft 357 kts 259°
2026-05-06 07:16 50.88461 -1.89758 35011 ft 359 kts 259°
2026-05-06 07:17 50.87508 -1.97462 35001 ft 354 kts 260°
2026-05-06 07:17 50.86575 -2.05143 34999 ft 357 kts 260°
2026-05-06 07:18 50.85653 -2.12877 34998 ft 357 kts 261°
2026-05-06 07:18 50.84752 -2.20599 35001 ft 357 kts 261°
2026-05-06 07:19 50.83865 -2.28352 35006 ft 358 kts 261°
2026-05-06 07:19 50.82999 -2.36072 35004 ft 356 kts 261°
2026-05-06 07:20 50.82150 -2.43812 35004 ft 358 kts 261°
2026-05-06 07:20 50.81324 -2.51512 35003 ft 356 kts 262°
2026-05-06 07:21 50.80512 -2.59232 34997 ft 357 kts 262°
2026-05-06 07:21 50.79716 -2.66989 35006 ft 357 kts 262°
2026-05-06 07:22 50.78939 -2.74726 35000 ft 356 kts 262°
2026-05-06 07:22 50.78179 -2.82466 35001 ft 357 kts 263°
2026-05-06 07:23 50.77438 -2.90189 35006 ft 353 kts 263°
2026-05-06 07:23 50.76721 -2.97878 35002 ft 356 kts 263°
2026-05-06 07:24 50.76016 -3.05623 34997 ft 355 kts 263°
2026-05-06 07:24 50.75332 -3.13312 34992 ft 354 kts 263°
2026-05-06 07:25 50.74660 -3.21055 35002 ft 355 kts 263°
2026-05-06 07:25 50.74013 -3.28681 34982 ft 346 kts 263°
2026-05-06 07:26 50.73387 -3.36266 34997 ft 352 kts 263°
2026-05-06 07:26 50.72774 -3.43938 34997 ft 351 kts 264°
2026-05-06 07:27 50.72181 -3.51555 34989 ft 350 kts 264°
2026-05-06 07:27 50.71605 -3.59201 34998 ft 352 kts 264°
2026-05-06 07:28 50.71044 -3.66912 35001 ft 362 kts 264°
2026-05-06 07:28 50.70758 -3.70971 35021 ft 383 kts 264°
2026-05-06 07:28 50.70153 -3.79840 35025 ft 430 kts 264°
2026-05-06 07:29 50.69838 -3.84595 35028 ft 453 kts 265°
2026-05-06 07:29 50.69510 -3.89634 35012 ft 468 kts 265°
2026-05-06 07:29 50.68874 -3.99882 34998 ft 469 kts 265°
2026-05-06 07:30 50.68283 -4.10074 34994 ft 464 kts 265°
2026-05-06 07:30 50.67742 -4.20051 34990 ft 448 kts 266°
2026-05-06 07:31 50.67249 -4.29671 34993 ft 433 kts 266°
2026-05-06 07:31 50.66788 -4.39030 34993 ft 426 kts 266°
2026-05-06 07:32 50.66348 -4.48302 34992 ft 422 kts 266°
2026-05-06 07:32 50.65928 -4.57482 34994 ft 418 kts 266°
2026-05-06 07:33 50.65529 -4.66576 34997 ft 415 kts 266°
2026-05-06 07:33 50.65148 -4.75633 35005 ft 413 kts 267°
2026-05-06 07:34 50.64787 -4.84631 34996 ft 410 kts 267°
2026-05-06 07:34 50.64445 -4.93573 34997 ft 408 kts 267°
2026-05-06 07:35 50.64123 -5.02466 34995 ft 406 kts 267°
2026-05-06 07:35 50.63818 -5.11321 35000 ft 404 kts 268°
2026-05-06 07:36 50.63531 -5.20147 34997 ft 403 kts 268°
2026-05-06 07:36 50.63264 -5.28894 35002 ft 401 kts 268°
2026-05-06 07:37 50.63014 -5.37649 35000 ft 400 kts 268°
2026-05-06 07:37 50.62781 -5.46398 35006 ft 399 kts 268°
2026-05-06 07:38 50.62566 -5.55122 35006 ft 398 kts 268°
2026-05-06 07:38 50.62369 -5.63831 35016 ft 397 kts 269°
2026-05-06 07:39 50.62190 -5.72523 35016 ft 397 kts 269°
2026-05-06 07:39 50.62029 -5.81207 35028 ft 396 kts 269°
2026-05-06 07:40 50.61886 -5.89876 35029 ft 396 kts 269°
2026-05-06 07:40 50.61760 -5.98548 35032 ft 396 kts 269°
2026-05-06 07:41 50.61653 -6.07214 35024 ft 396 kts 269°
2026-05-06 07:41 50.61564 -6.15876 35039 ft 396 kts 269°
2026-05-06 07:42 50.61493 -6.24550 35032 ft 396 kts 271°
2026-05-06 07:42 50.61942 -6.28783 35043 ft 394 kts 292°
2026-05-06 07:42 50.63432 -6.32366 35044 ft 395 kts 315°
2026-05-06 07:43 50.65727 -6.34708 35047 ft 398 kts 338°
2026-05-06 07:43 50.68399 -6.35884 35051 ft 401 kts 348°
2026-05-06 07:43 50.71181 -6.36140 35048 ft 405 kts
2026-05-06 07:43 50.73958 -6.35290 35050 ft 409 kts 17°
2026-05-06 07:44 50.76521 -6.33295 35049 ft 414 kts 33°
2026-05-06 07:44 50.78658 -6.30224 35046 ft 418 kts 50°
2026-05-06 07:44 50.80165 -6.26286 35048 ft 421 kts 67°
2026-05-06 07:44 50.81144 -6.21924 35043 ft 422 kts 71°
2026-05-06 07:45 50.83028 -6.13155 35022 ft 424 kts 68°
2026-05-06 07:45 50.85072 -6.04339 35028 ft 425 kts 70°
2026-05-06 07:46 50.87024 -5.95507 35040 ft 426 kts 69°
2026-05-06 07:46 50.89021 -5.86638 35025 ft 428 kts 69°
2026-05-06 07:47 50.90981 -5.77802 35022 ft 429 kts 69°
2026-05-06 07:47 50.92962 -5.68873 35026 ft 430 kts 69°
2026-05-06 07:48 50.94939 -5.59911 35021 ft 431 kts 70°
2026-05-06 07:48 50.96915 -5.50920 35022 ft 432 kts 70°
2026-05-06 07:49 50.98888 -5.41898 35018 ft 433 kts 70°
2026-05-06 07:49 51.00528 -5.34375 35020 ft 434 kts 69°
2026-05-06 07:50 51.01955 -5.30212 35016 ft 429 kts 47°
2026-05-06 07:50 51.04047 -5.26875 35016 ft 427 kts 47°
2026-05-06 07:50 51.05556 -5.22829 35036 ft 429 kts 71°
2026-05-06 07:50 51.05985 -5.18146 35039 ft 430 kts 94°
2026-05-06 07:51 51.05297 -5.13557 35044 ft 429 kts 116°
2026-05-06 07:51 51.03607 -5.09702 35037 ft 426 kts 138°
2026-05-06 07:51 51.01100 -5.07074 35049 ft 444 kts 160°
2026-05-06 07:51 50.98067 -5.05997 35044 ft 446 kts 180°
2026-05-06 07:52 50.95060 -5.05642 35007 ft 432 kts 167°
2026-05-06 07:52 50.92267 -5.03637 35037 ft 454 kts 145°
2026-05-06 07:52 50.90032 -5.00060 35034 ft 461 kts 124°
2026-05-06 07:52 50.88710 -4.95464 35030 ft 462 kts 103°
2026-05-06 07:53 50.88469 -4.90414 35036 ft 462 kts 82°
2026-05-06 07:53 50.89345 -4.85551 35031 ft 462 kts 62°
2026-05-06 07:53 50.91220 -4.81481 35022 ft 457 kts 41°
2026-05-06 07:53 50.93840 -4.78733 35029 ft 450 kts 20°
2026-05-06 07:54 50.96851 -4.77637 35044 ft 443 kts
2026-05-06 07:54 50.99892 -4.76798 35035 ft 450 kts 19°
2026-05-06 07:54 51.02610 -4.74290 35042 ft 457 kts 38°
2026-05-06 07:54 51.04857 -4.70745 35025 ft 457 kts 47°
2026-05-06 07:55 51.08790 -4.62812 35014 ft 457 kts 52°
2026-05-06 07:55 51.12492 -4.54641 35016 ft 458 kts 53°
2026-05-06 07:56 51.14095 -4.50198 35015 ft 458 kts 66°
2026-05-06 07:56 51.15088 -4.45449 35018 ft 461 kts 74°
2026-05-06 07:56 51.16611 -4.35499 35019 ft 461 kts 74°
2026-05-06 07:57 51.18777 -4.25940 35029 ft 459 kts 66°
2026-05-06 07:57 51.21005 -4.16411 35025 ft 459 kts 71°
2026-05-06 07:58 51.23041 -4.06891 35026 ft 459 kts 69°
2026-05-06 07:58 51.25218 -3.97324 35031 ft 459 kts 70°
2026-05-06 07:59 51.27303 -3.87694 35035 ft 459 kts 69°
2026-05-06 07:59 51.28915 -3.77829 35027 ft 464 kts 91°
2026-05-06 08:00 51.28354 -3.72796 35057 ft 461 kts 109°
2026-05-06 08:00 51.26998 -3.68172 35054 ft 460 kts 116°
2026-05-06 08:00 51.26089 -3.63289 35049 ft 462 kts 95°
2026-05-06 08:00 51.26319 -3.58203 35057 ft 461 kts 74°
2026-05-06 08:01 51.27485 -3.53462 35056 ft 458 kts 62°
2026-05-06 08:01 51.29044 -3.49024 35032 ft 458 kts 57°
2026-05-06 08:01 51.32532 -3.40485 35044 ft 459 kts 54°
2026-05-06 08:02 51.34131 -3.36072 35027 ft 459 kts 65°
2026-05-06 08:02 51.35247 -3.31286 35031 ft 460 kts 72°
2026-05-06 08:02 51.37048 -3.21456 35032 ft 461 kts 71°
2026-05-06 08:03 51.39448 -3.11983 35033 ft 459 kts 65°
2026-05-06 08:03 51.41713 -3.02473 35041 ft 461 kts 70°
2026-05-06 08:04 51.43980 -2.92894 35042 ft 459 kts 67°
2026-05-06 08:04 51.46262 -2.83337 35051 ft 460 kts 69°
2026-05-06 08:05 51.47327 -2.78524 35027 ft 448 kts 70°
2026-05-06 08:05 51.48287 -2.73935 35012 ft 420 kts 71°
2026-05-06 08:05 51.49140 -2.69600 35033 ft 394 kts 72°
2026-05-06 08:05 51.49891 -2.65506 35002 ft 371 kts 73°
2026-05-06 08:06 51.50568 -2.61539 34390 ft 368 kts 74°
2026-05-06 08:06 51.51192 -2.57584 33732 ft 365 kts 75°
2026-05-06 08:06 51.51762 -2.53635 33081 ft 360 kts 76°
2026-05-06 08:06 51.52274 -2.49726 32451 ft 356 kts 77°
2026-05-06 08:07 51.52732 -2.45836 31808 ft 352 kts 78°
2026-05-06 08:07 51.53133 -2.41984 31187 ft 348 kts 79°
2026-05-06 08:07 51.53479 -2.38152 30591 ft 345 kts 81°
2026-05-06 08:07 51.53768 -2.34348 29984 ft 341 kts 82°
2026-05-06 08:08 51.54006 -2.30578 29308 ft 338 kts 83°
2026-05-06 08:08 51.54199 -2.26835 28627 ft 334 kts 84°
2026-05-06 08:08 51.54386 -2.23107 27972 ft 346 kts 78°
2026-05-06 08:08 51.55233 -2.19352 27380 ft 362 kts 61°
2026-05-06 08:09 51.56475 -2.15884 26801 ft 355 kts 56°
2026-05-06 08:09 51.57803 -2.12567 26191 ft 349 kts 55°
2026-05-06 08:09 51.59121 -2.09388 25598 ft 344 kts 54°
2026-05-06 08:09 51.60449 -2.06226 25004 ft 340 kts 54°
2026-05-06 08:10 51.61777 -2.03087 24424 ft 337 kts 54°
2026-05-06 08:10 51.63094 -1.99983 23852 ft 335 kts 54°
2026-05-06 08:10 51.64404 -1.96904 23220 ft 333 kts 54°
2026-05-06 08:10 51.65708 -1.93844 22571 ft 330 kts 54°
2026-05-06 08:11 51.66998 -1.90802 21944 ft 327 kts 54°
2026-05-06 08:11 51.68272 -1.87789 21300 ft 323 kts 54°
2026-05-06 08:11 51.69526 -1.84804 20672 ft 320 kts 54°
2026-05-06 08:11 51.70768 -1.81852 20064 ft 316 kts 54°
2026-05-06 08:12 51.71990 -1.78931 19465 ft 312 kts 54°
2026-05-06 08:12 51.73192 -1.76038 18877 ft 309 kts 54°
2026-05-06 08:12 51.74385 -1.73165 18309 ft 307 kts 54°
2026-05-06 08:12 51.75561 -1.70312 17662 ft 304 kts 54°
2026-05-06 08:13 51.76727 -1.67479 17016 ft 300 kts 54°